Find OneWeb SL0532

NORAD ID: 55140 Int'l Des: 2023-004 Owner: ONEWEBN Country: UK Constellation: oneweb operational
又名: ONEWEB-0532 spacetrack, celestrak
LEOCIRCULARPOLARONEWEB_TYPE

当前视图

正在加载3D地球...

About OneWeb SL0532

OneWeb SL0532 (NORAD 55140) is a oneweb constellation satellite launched Jan 10, 2023 by ONEWEBN of UK. It operates in LEO, CIRCULAR, POLAR, ONEWEB_TYPE orbit with a mass of 148.00 kg.

即将过境

Passes for default location (London). Set your location on the main map for personalized predictions.

高度历史

Loading altitude history...

两行轨道根数

1 55140U 23004A 26266.21796242 .00000082 00000-0 17692-3 0 9997
2 55140 87.9198 346.3978 0001872 111.5113 248.6218 13.17648059180497
Epoch: Sep 23, 2026 • Age: 11 hours

当前状态

高度 1205.5 km
远地点 / 近地点 N/A
速度 7.26 km/s
星下点 74.89°N, 103.29°E
发射日期 Jan 10, 2023
运行时间 3.7 years
类型 internet

技术详情

分类 Payload
质量 148.00 kg
干质量 140.00 kg
长度 1.30 m
直径 1.00 m
跨度 5.00 m
形状 ? Trapezoid+2 pan
制造商 ONEWUS
平台类型 ARROW
阶段状态 In Orbit
所有者/国家 ONEWEBN/UK

Most Searched